Powrót do katalogu

STARLINK-34292

AktywnyŁącznośćVLEO
NORAD 64390·PAYLOAD·🇺🇸 United States

Wystrzelony Jun 13, 2025 z Cape Canaveral Space Force Station

Loading…

Następne Przeloty (najbliższe 24 godziny)

TLE

ŚwieżeSource: CelesTrak SupGP

Epoka: Sep 15, 2026, 02:26 UTC

1 64390C 25127W   26258.10187500 -.00040261  00000+0 -14584-2 0  2580
2 64390  42.9993 190.2579 0001145 274.1468  66.9539 15.27594796    10

Śledź STARLINK-34292 w czasie rzeczywistym z AllMySat

Download on the App Store